Time,TemperatureF,DewpointF,PressureIn,WindDirection,WindDirectionDegrees,WindSpeedMPH,WindSpeedGustMPH,Humidity,HourlyPrecipIn,Conditions,Clouds,dailyrainin,SoftwareType,DateUTC
2013-06-09 00:00:00,65.4,43.5,29.79,South,170,1.0,6.0,45,0.00,,---,0.00,VWS V13.00,2013-06-09 07:00:00,
2013-06-09 00:01:00,65.3,43.4,29.79,SSE,156,1.0,5.0,45,0.00,,---,0.00,VWS V13.00,2013-06-09 07:01:00,
2013-06-09 00:06:00,64.9,43.1,29.79,SSE,160,2.0,7.0,45,0.00,,---,0.00,VWS V13.00,2013-06-09 07:06:00,
2013-06-09 00:11:00,64.6,43.4,29.79,SE,144,5.0,7.0,46,0.00,,---,0.00,VWS V13.00,2013-06-09 07:11:00,
2013-06-09 00:16:00,64.4,43.2,29.78,ESE,122,0.0,7.0,46,0.00,,---,0.00,VWS V13.00,2013-06-09 07:16:00,
2013-06-09 00:21:00,64.2,43.6,29.78,SSE,163,0.0,7.0,47,0.00,,---,0.00,VWS V13.00,2013-06-09 07:21:00,
2013-06-09 00:26:00,63.9,43.3,29.78,SSE,155,1.0,7.0,47,0.00,,---,0.00,VWS V13.00,2013-06-09 07:26:00,
2013-06-09 00:30:00,63.8,43.2,29.78,SSE,147,2.0,7.0,47,0.00,,---,0.00,VWS V13.00,2013-06-09 07:30:00,
2013-06-09 00:31:00,63.7,43.1,29.79,SSE,147,0.0,3.0,47,0.00,,---,0.00,VWS V13.00,2013-06-09 07:31:00,
2013-06-09 00:36:00,63.6,43.6,29.79,South,185,3.0,5.0,48,0.00,,---,0.00,VWS V13.00,2013-06-09 07:36:00,
2013-06-09 00:41:00,63.3,43.3,29.79,SE,130,0.0,6.0,48,0.00,,---,0.00,VWS V13.00,2013-06-09 07:41:00,
2013-06-09 00:46:00,63.0,43.6,29.79,SSE,165,5.0,7.0,49,0.00,,---,0.00,VWS V13.00,2013-06-09 07:46:00,
2013-06-09 00:51:00,62.8,43.4,29.79,SSE,148,2.0,7.0,49,0.00,,---,0.00,VWS V13.00,2013-06-09 07:51:00,
2013-06-09 00:56:00,62.6,43.2,29.79,SE,134,0.0,7.0,49,0.00,,---,0.00,VWS V13.00,2013-06-09 07:56:00,
2013-06-09 01:00:00,62.5,43.6,29.78,SE,126,4.0,7.0,50,0.00,,---,0.00,VWS V13.00,2013-06-09 08:00:00,
2013-06-09 01:01:00,62.4,43.5,29.78,SE,125,1.0,4.0,50,0.00,,---,0.00,VWS V13.00,2013-06-09 08:01:00,
2013-06-09 01:06:00,62.1,43.8,29.78,SE,133,0.0,5.0,51,0.00,,---,0.00,VWS V13.00,2013-06-09 08:06:00,
2013-06-09 01:11:00,61.9,43.1,29.78,SSE,167,5.0,10.0,50,0.00,,---,0.00,VWS V13.00,2013-06-09 08:11:00,
2013-06-09 01:16:00,61.8,43.0,29.78,South,175,4.0,11.0,50,0.00,,---,0.00,VWS V13.00,2013-06-09 08:16:00,
2013-06-09 01:21:00,61.7,43.4,29.78,South,173,2.0,11.0,51,0.00,,---,0.00,VWS V13.00,2013-06-09 08:21:00,
2013-06-09 01:26:00,61.5,43.2,29.78,SSE,156,0.0,11.0,51,0.00,,---,0.00,VWS V13.00,2013-06-09 08:26:00,
2013-06-09 01:30:00,61.3,43.0,29.78,SSE,162,2.0,2.0,51,0.00,,---,0.00,VWS V13.00,2013-06-09 08:30:00,
2013-06-09 01:35:00,61.1,43.4,29.78,SSE,163,2.0,3.0,52,0.00,,---,0.00,VWS V13.00,2013-06-09 08:35:00,
2013-06-09 01:40:00,60.8,43.1,29.78,ESE,111,1.0,5.0,52,0.00,,---,0.00,VWS V13.00,2013-06-09 08:40:00,
2013-06-09 01:45:00,60.4,43.2,29.79,ESE,116,3.0,5.0,53,0.00,,---,0.00,VWS V13.00,2013-06-09 08:45:00,
2013-06-09 01:50:00,60.0,43.3,29.79,ESE,114,1.0,6.0,54,0.00,,---,0.00,VWS V13.00,2013-06-09 08:50:00,
2013-06-09 01:55:00,59.8,43.1,29.78,SE,130,1.0,7.0,54,0.00,,---,0.00,VWS V13.00,2013-06-09 08:55:00,
2013-06-09 02:00:00,59.5,43.3,29.78,SE,127,2.0,5.0,55,0.00,,---,0.00,VWS V13.00,2013-06-09 09:00:00,
2013-06-09 02:05:00,59.1,43.0,29.78,SE,136,2.0,5.0,55,0.00,,---,0.00,VWS V13.00,2013-06-09 09:05:00,
2013-06-09 02:10:00,59.0,42.9,29.79,SSE,150,1.0,5.0,55,0.00,,---,0.00,VWS V13.00,2013-06-09 09:10:00,
2013-06-09 02:15:00,59.0,43.3,29.78,South,175,0.0,6.0,56,0.00,,---,0.00,VWS V13.00,2013-06-09 09:15:00,
2013-06-09 02:20:00,58.9,43.2,29.78,SSE,160,4.0,6.0,56,0.00,,---,0.00,VWS V13.00,2013-06-09 09:20:00,
2013-06-09 02:25:00,58.7,43.1,29.78,SE,142,0.0,6.0,56,0.00,,---,0.00,VWS V13.00,2013-06-09 09:25:00,
2013-06-09 02:30:00,58.4,43.2,29.78,SE,128,2.0,4.0,57,0.00,,---,0.00,VWS V13.00,2013-06-09 09:30:00,
2013-06-09 02:35:00,58.2,43.1,29.78,East,92,0.0,4.0,57,0.00,,---,0.00,VWS V13.00,2013-06-09 09:35:00,
2013-06-09 02:40:00,58.0,43.3,29.78,East,92,0.0,4.0,58,0.00,,---,0.00,VWS V13.00,2013-06-09 09:40:00,
2013-06-09 02:45:00,57.7,43.0,29.78,ESE,104,0.0,4.0,58,0.00,,---,0.00,VWS V13.00,2013-06-09 09:45:00,
2013-06-09 02:50:00,57.6,43.0,29.78,ESE,104,0.0,4.0,58,0.00,,---,0.00,VWS V13.00,2013-06-09 09:50:00,
2013-06-09 02:55:00,57.4,43.2,29.78,SSE,149,0.0,4.0,59,0.00,,---,0.00,VWS V13.00,2013-06-09 09:55:00,
2013-06-09 03:00:00,57.2,43.0,29.78,SSE,148,0.0,4.0,59,0.00,,---,0.00,VWS V13.00,2013-06-09 10:00:00,
2013-06-09 03:05:00,57.1,42.9,29.78,SSE,147,1.0,4.0,59,0.00,,---,0.00,VWS V13.00,2013-06-09 10:05:00,
2013-06-09 03:10:00,56.7,43.0,29.78,ESE,117,2.0,4.0,60,0.00,,---,0.00,VWS V13.00,2013-06-09 10:10:00,
2013-06-09 03:15:00,56.3,43.0,29.79,SE,128,6.0,6.0,61,0.00,,---,0.00,VWS V13.00,2013-06-09 10:15:00,
2013-06-09 03:20:00,56.0,42.8,29.79,SE,126,2.0,6.0,61,0.00,,---,0.00,VWS V13.00,2013-06-09 10:20:00,
2013-06-09 03:25:00,55.8,43.0,29.79,SSE,150,0.0,6.0,62,0.00,,---,0.00,VWS V13.00,2013-06-09 10:25:00,
2013-06-09 03:30:00,55.6,43.2,29.79,SSE,152,5.0,5.0,63,0.00,,---,0.00,VWS V13.00,2013-06-09 10:30:00,
2013-06-09 03:35:00,55.5,43.1,29.79,SE,133,5.0,10.0,63,0.00,,---,0.00,VWS V13.00,2013-06-09 10:35:00,
2013-06-09 03:40:00,55.6,43.2,29.79,SE,144,4.0,11.0,63,0.00,,---,0.00,VWS V13.00,2013-06-09 10:40:00,
2013-06-09 03:45:00,55.7,43.3,29.79,ESE,120,5.0,11.0,63,0.00,,---,0.00,VWS V13.00,2013-06-09 10:45:00,
2013-06-09 03:50:00,55.7,43.3,29.79,SE,144,5.0,11.0,63,0.00,,---,0.00,VWS V13.00,2013-06-09 10:50:00,
2013-06-09 03:55:00,55.7,43.3,29.79,SE,130,2.0,11.0,63,0.00,,---,0.00,VWS V13.00,2013-06-09 10:55:00,
2013-06-09 04:00:00,55.7,43.3,29.79,SE,130,5.0,9.0,63,0.00,,---,0.00,VWS V13.00,2013-06-09 11:00:00,
2013-06-09 04:05:00,55.5,43.1,29.79,ESE,123,10.0,12.0,63,0.00,,---,0.00,VWS V13.00,2013-06-09 11:05:00,
2013-06-09 04:10:00,55.4,43.0,29.79,SE,130,7.0,12.0,63,0.00,,---,0.00,VWS V13.00,2013-06-09 11:10:00,
2013-06-09 04:15:00,55.2,42.8,29.80,ESE,123,6.0,12.0,63,0.00,,---,0.00,VWS V13.00,2013-06-09 11:15:00,
2013-06-09 04:20:00,55.1,42.8,29.79,SSE,152,12.0,12.0,63,0.00,,---,0.00,VWS V13.00,2013-06-09 11:20:00,
2013-06-09 04:25:00,55.0,43.1,29.80,SE,137,9.0,12.0,64,0.00,,---,0.00,VWS V13.00,2013-06-09 11:25:00,
2013-06-09 04:30:00,54.9,43.0,29.80,ESE,117,1.0,10.0,64,0.00,,---,0.00,VWS V13.00,2013-06-09 11:30:00,
2013-06-09 04:35:00,54.8,42.9,29.80,SSE,168,4.0,10.0,64,0.00,,---,0.00,VWS V13.00,2013-06-09 11:35:00,
2013-06-09 04:40:00,54.6,42.7,29.80,ESE,121,0.0,10.0,64,0.00,,---,0.00,VWS V13.00,2013-06-09 11:40:00,
2013-06-09 04:45:00,54.4,42.5,29.81,ESE,121,0.0,10.0,64,0.00,,---,0.00,VWS V13.00,2013-06-09 11:45:00,
2013-06-09 04:50:00,54.3,42.4,29.81,SSW,199,0.0,10.0,64,0.00,,---,0.00,VWS V13.00,2013-06-09 11:50:00,
2013-06-09 04:55:00,54.2,42.7,29.81,SSW,199,2.0,10.0,65,0.00,,---,0.00,VWS V13.00,2013-06-09 11:55:00,
2013-06-09 05:00:00,54.1,42.6,29.81,SSW,199,0.0,0.0,65,0.00,,---,0.00,VWS V13.00,2013-06-09 12:00:00,
2013-06-09 05:05:00,53.8,42.7,29.82,ESE,110,0.0,2.0,66,0.00,,---,0.00,VWS V13.00,2013-06-09 12:05:00,
2013-06-09 05:10:00,53.6,42.5,29.82,ESE,107,2.0,6.0,66,0.00,,---,0.00,VWS V13.00,2013-06-09 12:10:00,
2013-06-09 05:15:00,53.3,43.0,29.81,SSE,163,3.0,6.0,68,0.00,,---,0.00,VWS V13.00,2013-06-09 12:15:00,
2013-06-09 05:20:00,53.1,42.8,29.81,SE,139,3.0,10.0,68,0.00,,---,0.00,VWS V13.00,2013-06-09 12:20:00,
2013-06-09 05:25:00,53.0,42.7,29.81,ESE,121,4.0,10.0,68,0.00,,---,0.00,VWS V13.00,2013-06-09 12:25:00,
2013-06-09 05:30:00,52.9,43.4,29.81,SE,145,4.0,10.0,70,0.00,,---,0.00,VWS V13.00,2013-06-09 12:30:00,
2013-06-09 05:35:00,52.8,44.0,29.81,ESE,121,4.0,10.0,72,0.00,,---,0.00,VWS V13.00,2013-06-09 12:35:00,
2013-06-09 05:40:00,52.6,44.2,29.81,SSE,152,3.0,10.0,73,0.00,,---,0.00,VWS V13.00,2013-06-09 12:40:00,
2013-06-09 05:45:00,52.4,44.0,29.82,SE,129,3.0,10.0,73,0.00,,---,0.00,VWS V13.00,2013-06-09 12:45:00,
2013-06-09 05:50:00,52.4,44.0,29.82,ESE,111,5.0,10.0,73,0.00,,---,0.00,VWS V13.00,2013-06-09 12:50:00,
2013-06-09 05:55:00,52.4,44.0,29.82,SE,141,4.0,10.0,73,0.00,,---,0.00,VWS V13.00,2013-06-09 12:55:00,
2013-06-09 06:00:00,52.4,44.0,29.82,ESE,113,4.0,4.0,73,0.00,,---,0.00,VWS V13.00,2013-06-09 13:00:00,
2013-06-09 06:05:00,52.4,43.3,29.82,SE,128,0.0,7.0,71,0.00,,---,0.00,VWS V13.00,2013-06-09 13:05:00,
2013-06-09 06:10:00,52.7,43.6,29.82,ESE,122,2.0,9.0,71,0.00,,---,0.00,VWS V13.00,2013-06-09 13:10:00,
2013-06-09 06:15:00,53.0,43.5,29.82,SE,136,0.0,9.0,70,0.00,,---,0.00,VWS V13.00,2013-06-09 13:15:00,
2013-06-09 06:20:00,53.3,43.4,29.83,ESE,118,0.0,9.0,69,0.00,,---,0.00,VWS V13.00,2013-06-09 13:20:00,
2013-06-09 06:25:00,53.6,43.7,29.82,SE,130,0.0,9.0,69,0.00,,---,0.00,VWS V13.00,2013-06-09 13:25:00,
2013-06-09 06:30:00,53.9,43.6,29.82,East,94,3.0,5.0,68,0.00,,---,0.00,VWS V13.00,2013-06-09 13:30:00,
2013-06-09 06:35:00,54.2,43.5,29.82,ESE,102,2.0,7.0,67,0.00,,---,0.00,VWS V13.00,2013-06-09 13:35:00,
2013-06-09 06:40:00,54.5,44.2,29.82,SSE,161,1.0,7.0,68,0.00,,---,0.00,VWS V13.00,2013-06-09 13:40:00,
2013-06-09 06:45:00,54.8,43.3,29.82,SE,130,2.0,10.0,65,0.00,,---,0.00,VWS V13.00,2013-06-09 13:45:00,
2013-06-09 06:50:00,55.0,43.5,29.82,SE,137,4.0,10.0,65,0.00,,---,0.00,VWS V13.00,2013-06-09 13:50:00,
2013-06-09 06:55:00,55.3,43.3,29.82,ESE,110,3.0,10.0,64,0.00,,---,0.00,VWS V13.00,2013-06-09 13:55:00,
2013-06-09 07:00:00,55.5,43.5,29.82,SE,134,1.0,4.0,64,0.00,,---,0.00,VWS V13.00,2013-06-09 14:00:00,
2013-06-09 07:05:00,55.7,43.3,29.82,ESE,119,4.0,7.0,63,0.00,,---,0.00,VWS V13.00,2013-06-09 14:05:00,
2013-06-09 07:10:00,55.9,43.5,29.82,SSE,150,1.0,7.0,63,0.00,,---,0.00,VWS V13.00,2013-06-09 14:10:00,
2013-06-09 07:15:00,56.1,43.7,29.82,SSE,168,2.0,7.0,63,0.00,,---,0.00,VWS V13.00,2013-06-09 14:15:00,
2013-06-09 07:20:00,56.3,43.5,29.82,SSE,168,5.0,9.0,62,0.00,,---,0.00,VWS V13.00,2013-06-09 14:20:00,
2013-06-09 07:25:00,56.5,43.7,29.82,SE,140,5.0,10.0,62,0.00,,---,0.00,VWS V13.00,2013-06-09 14:25:00,
2013-06-09 07:30:00,56.6,43.8,29.82,South,171,3.0,6.0,62,0.00,,---,0.00,VWS V13.00,2013-06-09 14:30:00,
2013-06-09 07:35:00,56.9,43.6,29.82,SE,140,4.0,11.0,61,0.00,,---,0.00,VWS V13.00,2013-06-09 14:35:00,
2013-06-09 07:40:00,57.1,43.8,29.82,SSE,149,3.0,11.0,61,0.00,,---,0.00,VWS V13.00,2013-06-09 14:40:00,
2013-06-09 07:45:00,57.4,43.2,29.82,SSE,158,4.0,12.0,59,0.00,,---,0.00,VWS V13.00,2013-06-09 14:45:00,
2013-06-09 07:50:00,57.6,43.8,29.81,SE,133,4.0,12.0,60,0.00,,---,0.00,VWS V13.00,2013-06-09 14:50:00,
2013-06-09 07:55:00,57.8,43.6,29.82,SE,130,6.0,12.0,59,0.00,,---,0.00,VWS V13.00,2013-06-09 14:55:00,
2013-06-09 08:00:00,58.0,43.8,29.82,East,101,0.0,3.0,59,0.00,,---,0.00,VWS V13.00,2013-06-09 15:00:00,
2013-06-09 08:05:00,58.2,43.5,29.82,ESE,104,0.0,3.0,58,0.00,,---,0.00,VWS V13.00,2013-06-09 15:05:00,
2013-06-09 08:10:00,58.4,43.7,29.82,SSE,159,2.0,7.0,58,0.00,,---,0.00,VWS V13.00,2013-06-09 15:10:00,
2013-06-09 08:15:00,58.6,44.3,29.82,SSE,164,4.0,7.0,59,0.00,,---,0.00,VWS V13.00,2013-06-09 15:15:00,
2013-06-09 08:20:00,58.9,44.2,29.82,SE,132,5.0,7.0,58,0.00,,---,0.00,VWS V13.00,2013-06-09 15:20:00,
2013-06-09 08:25:00,59.0,43.8,29.82,ESE,118,4.0,11.0,57,0.00,,---,0.00,VWS V13.00,2013-06-09 15:25:00,
2013-06-09 08:30:00,59.0,43.8,29.82,East,101,2.0,5.0,57,0.00,,---,0.00,VWS V13.00,2013-06-09 15:30:00,
2013-06-09 08:35:00,59.1,43.0,29.82,ESE,122,3.0,10.0,55,0.00,,---,0.00,VWS V13.00,2013-06-09 15:35:00,
2013-06-09 08:40:00,59.4,43.7,29.82,SE,130,2.0,10.0,56,0.00,,---,0.00,VWS V13.00,2013-06-09 15:40:00,
2013-06-09 08:45:00,59.7,43.5,29.82,ESE,122,4.0,11.0,55,0.00,,---,0.00,VWS V13.00,2013-06-09 15:45:00,
2013-06-09 08:50:00,60.0,44.3,29.82,SE,139,8.0,12.0,56,0.00,,---,0.00,VWS V13.00,2013-06-09 15:50:00,
2013-06-09 08:55:00,60.4,44.2,29.82,SE,126,0.0,12.0,55,0.00,,---,0.00,VWS V13.00,2013-06-09 15:55:00,
2013-06-09 09:00:00,60.7,44.0,29.83,SSE,158,0.0,7.0,54,0.00,,---,0.00,VWS V13.00,2013-06-09 16:00:00,
2013-06-09 09:05:00,60.9,44.6,29.82,SSE,149,5.0,10.0,55,0.00,,---,0.00,VWS V13.00,2013-06-09 16:05:00,
2013-06-09 09:10:00,61.3,44.5,29.82,SE,140,2.0,11.0,54,0.00,,---,0.00,VWS V13.00,2013-06-09 16:10:00,
2013-06-09 09:15:00,61.6,44.8,29.82,SE,139,3.0,12.0,54,0.00,,---,0.00,VWS V13.00,2013-06-09 16:15:00,
2013-06-09 09:20:00,61.9,45.1,29.82,SSE,153,2.0,12.0,54,0.00,,---,0.00,VWS V13.00,2013-06-09 16:20:00,
2013-06-09 09:25:00,62.2,45.4,29.82,ESE,121,6.0,12.0,54,0.00,,---,0.00,VWS V13.00,2013-06-09 16:25:00,
2013-06-09 09:30:00,62.5,45.2,29.82,SE,126,3.0,7.0,53,0.00,,---,0.00,VWS V13.00,2013-06-09 16:30:00,
2013-06-09 09:35:00,62.8,44.9,29.82,East,89,2.0,11.0,52,0.00,,---,0.00,VWS V13.00,2013-06-09 16:35:00,
2013-06-09 09:40:00,63.1,44.7,29.82,ESE,123,9.0,13.0,51,0.00,,---,0.00,VWS V13.00,2013-06-09 16:40:00,
2013-06-09 09:45:00,63.5,45.6,29.82,SSE,159,7.0,13.0,52,0.00,,---,0.00,VWS V13.00,2013-06-09 16:45:00,
2013-06-09 09:50:00,64.1,45.1,29.82,SE,133,7.0,13.0,50,0.00,,---,0.00,VWS V13.00,2013-06-09 16:50:00,
2013-06-09 09:55:00,64.5,46.0,29.81,ESE,113,10.0,13.0,51,0.00,,---,0.00,VWS V13.00,2013-06-09 16:55:00,
2013-06-09 10:00:00,64.7,45.1,29.81,East,84,5.0,13.0,49,0.00,,---,0.00,VWS V13.00,2013-06-09 17:00:00,
2013-06-09 10:05:00,65.0,47.0,29.81,SSE,150,9.0,13.0,52,0.00,,---,0.00,VWS V13.00,2013-06-09 17:05:00,
2013-06-09 10:10:00,65.3,45.7,29.81,ESE,119,3.0,13.0,49,0.00,,---,0.00,VWS V13.00,2013-06-09 17:10:00,
2013-06-09 10:15:00,65.6,46.5,29.81,South,172,2.0,13.0,50,0.00,,---,0.00,VWS V13.00,2013-06-09 17:15:00,
2013-06-09 10:20:00,65.9,45.1,29.81,SSE,164,2.0,13.0,47,0.00,,---,0.00,VWS V13.00,2013-06-09 17:20:00,
2013-06-09 10:25:00,66.3,44.9,29.81,SE,137,4.0,13.0,46,0.00,,---,0.00,VWS V13.00,2013-06-09 17:25:00,
2013-06-09 10:30:00,66.5,43.3,29.81,SE,142,15.0,15.0,43,0.00,,---,0.00,VWS V13.00,2013-06-09 17:30:00,
2013-06-09 10:35:00,66.7,43.5,29.80,SE,128,7.0,15.0,43,0.00,,---,0.00,VWS V13.00,2013-06-09 17:35:00,
2013-06-09 10:40:00,67.0,43.8,29.80,SE,140,14.0,15.0,43,0.00,,---,0.00,VWS V13.00,2013-06-09 17:40:00,
2013-06-09 10:45:00,67.2,44.0,29.80,SE,142,1.0,15.0,43,0.00,,---,0.00,VWS V13.00,2013-06-09 17:45:00,
2013-06-09 10:50:00,67.5,44.2,29.80,SSE,158,11.0,15.0,43,0.00,,---,0.00,VWS V13.00,2013-06-09 17:50:00,
2013-06-09 10:55:00,67.9,45.2,29.80,SSE,157,1.0,15.0,44,0.00,,---,0.00,VWS V13.00,2013-06-09 17:55:00,
2013-06-09 11:00:00,68.2,43.0,29.81,WSW,257,2.0,6.0,40,0.00,,---,0.00,VWS V13.00,2013-06-09 18:00:00,
2013-06-09 11:05:00,68.6,44.0,29.81,South,173,2.0,12.0,41,0.00,,---,0.00,VWS V13.00,2013-06-09 18:05:00,
2013-06-09 11:10:00,68.9,42.3,29.80,ESE,109,2.0,13.0,38,0.00,,---,0.00,VWS V13.00,2013-06-09 18:10:00,
2013-06-09 11:15:00,69.2,43.9,29.81,SSE,167,4.0,13.0,40,0.00,,---,0.00,VWS V13.00,2013-06-09 18:15:00,
2013-06-09 11:20:00,69.4,40.6,29.80,ESE,117,5.0,14.0,35,0.00,,---,0.00,VWS V13.00,2013-06-09 18:20:00,
2013-06-09 11:25:00,69.7,43.7,29.81,East,82,2.0,14.0,39,0.00,,---,0.00,VWS V13.00,2013-06-09 18:25:00,
2013-06-09 11:30:00,70.2,42.0,29.81,SE,138,6.0,12.0,36,0.00,,---,0.00,VWS V13.00,2013-06-09 18:30:00,
2013-06-09 11:35:00,70.2,40.5,29.81,SE,126,4.0,18.0,34,0.00,,---,0.00,VWS V13.00,2013-06-09 18:35:00,
2013-06-09 11:40:00,70.4,40.0,29.81,SE,133,6.0,18.0,33,0.00,,---,0.00,VWS V13.00,2013-06-09 18:40:00,
2013-06-09 11:45:00,70.8,41.8,29.80,South,177,8.0,18.0,35,0.00,,---,0.00,VWS V13.00,2013-06-09 18:45:00,
2013-06-09 11:50:00,71.3,39.1,29.80,South,173,7.0,18.0,31,0.00,,---,0.00,VWS V13.00,2013-06-09 18:50:00,
2013-06-09 11:55:00,71.4,40.0,29.80,South,172,6.0,19.0,32,0.00,,---,0.00,VWS V13.00,2013-06-09 18:55:00,
2013-06-09 12:00:00,71.4,37.5,29.80,SSE,149,11.0,15.0,29,0.00,,---,0.00,VWS V13.00,2013-06-09 19:00:00,
2013-06-09 12:05:00,71.4,36.6,29.81,SSW,208,10.0,24.0,28,0.00,,---,0.00,VWS V13.00,2013-06-09 19:05:00,
2013-06-09 12:10:00,71.6,35.9,29.81,SSE,168,11.0,24.0,27,0.00,,---,0.00,VWS V13.00,2013-06-09 19:10:00,
2013-06-09 12:15:00,72.0,37.1,29.80,WSW,250,7.0,24.0,28,0.00,,---,0.00,VWS V13.00,2013-06-09 19:15:00,
2013-06-09 12:20:00,72.8,39.6,29.80,SSE,155,12.0,24.0,30,0.00,,---,0.00,VWS V13.00,2013-06-09 19:20:00,
2013-06-09 12:25:00,72.6,36.7,29.80,SW,225,6.0,24.0,27,0.00,,---,0.00,VWS V13.00,2013-06-09 19:25:00,
2013-06-09 12:30:00,72.3,36.5,29.80,South,184,3.0,15.0,27,0.00,,---,0.00,VWS V13.00,2013-06-09 19:30:00,
2013-06-09 12:35:00,72.6,36.7,29.80,SW,222,5.0,16.0,27,0.00,,---,0.00,VWS V13.00,2013-06-09 19:35:00,
2013-06-09 12:40:00,73.1,37.2,29.80,SSE,160,2.0,16.0,27,0.00,,---,0.00,VWS V13.00,2013-06-09 19:40:00,
2013-06-09 12:45:00,73.0,36.1,29.80,SE,142,5.0,16.0,26,0.00,,---,0.00,VWS V13.00,2013-06-09 19:45:00,
2013-06-09 12:50:00,73.1,37.2,29.80,South,171,6.0,20.0,27,0.00,,---,0.00,VWS V13.00,2013-06-09 19:50:00,
2013-06-09 12:55:00,73.7,38.6,29.80,SSE,151,3.0,20.0,28,0.00,,---,0.00,VWS V13.00,2013-06-09 19:55:00,
2013-06-09 13:00:00,73.8,37.8,29.80,SSE,156,3.0,9.0,27,0.00,,---,0.00,VWS V13.00,2013-06-09 20:00:00,
2013-06-09 13:05:00,73.3,36.4,29.81,SE,146,3.0,13.0,26,0.00,,---,0.00,VWS V13.00,2013-06-09 20:05:00,
2013-06-09 13:10:00,73.1,38.1,29.81,South,187,7.0,16.0,28,0.00,,---,0.00,VWS V13.00,2013-06-09 20:10:00,
2013-06-09 13:15:00,72.9,38.8,29.81,South,184,11.0,16.0,29,0.00,,---,0.00,VWS V13.00,2013-06-09 20:15:00,
2013-06-09 13:20:00,72.5,37.6,29.81,SSE,163,4.0,19.0,28,0.00,,---,0.00,VWS V13.00,2013-06-09 20:20:00,
2013-06-09 13:25:00,72.5,36.7,29.81,SSW,211,9.0,19.0,27,0.00,,---,0.00,VWS V13.00,2013-06-09 20:25:00,
2013-06-09 13:30:00,72.4,40.1,29.81,East,99,5.0,7.0,31,0.00,,---,0.00,VWS V13.00,2013-06-09 20:30:00,
2013-06-09 13:35:00,72.8,38.7,29.81,SSE,161,12.0,13.0,29,0.00,,---,0.00,VWS V13.00,2013-06-09 20:35:00,
2013-06-09 13:40:00,73.2,37.2,29.80,SSE,167,12.0,13.0,27,0.00,,---,0.00,VWS V13.00,2013-06-09 20:40:00,
2013-06-09 13:45:00,73.9,37.8,29.80,South,175,13.0,13.0,27,0.00,,---,0.00,VWS V13.00,2013-06-09 20:45:00,
2013-06-09 13:50:00,73.2,38.2,29.80,SSE,155,3.0,16.0,28,0.00,,---,0.00,VWS V13.00,2013-06-09 20:50:00,
2013-06-09 13:55:00,73.1,37.2,29.80,ESE,119,3.0,16.0,27,0.00,,---,0.00,VWS V13.00,2013-06-09 20:55:00,
2013-06-09 14:00:00,73.4,41.8,29.80,South,188,9.0,10.0,32,0.00,,---,0.00,VWS V13.00,2013-06-09 21:00:00,
2013-06-09 14:05:00,73.6,37.6,29.80,SE,133,7.0,16.0,27,0.00,,---,0.00,VWS V13.00,2013-06-09 21:05:00,
2013-06-09 14:10:00,73.4,33.4,29.81,South,182,5.0,16.0,23,0.00,,---,0.00,VWS V13.00,2013-06-09 21:10:00,
2013-06-09 14:15:00,74.5,35.4,29.80,South,173,0.0,16.0,24,0.00,,---,0.00,VWS V13.00,2013-06-09 21:15:00,
2013-06-09 14:20:00,74.8,38.6,29.80,SSE,159,6.0,16.0,27,0.00,,---,0.00,VWS V13.00,2013-06-09 21:20:00,
2013-06-09 14:25:00,74.7,39.5,29.80,SSW,200,13.0,16.0,28,0.00,,---,0.00,VWS V13.00,2013-06-09 21:25:00,
2013-06-09 14:30:00,74.2,35.1,29.80,SW,230,9.0,13.0,24,0.00,,---,0.00,VWS V13.00,2013-06-09 21:30:00,
2013-06-09 14:35:00,74.5,35.4,29.80,South,175,5.0,13.0,24,0.00,,---,0.00,VWS V13.00,2013-06-09 21:35:00,
2013-06-09 14:40:00,74.2,36.2,29.80,SE,126,13.0,17.0,25,0.00,,---,0.00,VWS V13.00,2013-06-09 21:40:00,
2013-06-09 14:45:00,74.0,35.0,29.80,South,175,11.0,17.0,24,0.00,,---,0.00,VWS V13.00,2013-06-09 21:45:00,
2013-06-09 14:50:00,75.1,35.9,29.79,South,176,4.0,17.0,24,0.00,,---,0.00,VWS V13.00,2013-06-09 21:50:00,
2013-06-09 14:55:00,75.2,37.0,29.79,SSE,149,6.0,17.0,25,0.00,,---,0.00,VWS V13.00,2013-06-09 21:55:00,
2013-06-09 15:00:00,74.6,37.5,29.79,SSW,207,4.0,10.0,26,0.00,,---,0.00,VWS V13.00,2013-06-09 22:00:00,
2013-06-09 15:05:00,74.3,38.2,29.79,SSE,150,10.0,20.0,27,0.00,,---,0.00,VWS V13.00,2013-06-09 22:05:00,
2013-06-09 15:10:00,74.2,39.0,29.79,SE,146,5.0,20.0,28,0.00,,---,0.00,VWS V13.00,2013-06-09 22:10:00,
2013-06-09 15:15:00,75.0,34.7,29.79,WSW,246,4.0,20.0,23,0.00,,---,0.00,VWS V13.00,2013-06-09 22:15:00,
2013-06-09 15:20:00,75.8,35.4,29.78,SSE,155,0.0,20.0,23,0.00,,---,0.00,VWS V13.00,2013-06-09 22:20:00,
2013-06-09 15:25:00,75.5,38.2,29.78,SSE,167,11.0,20.0,26,0.00,,---,0.00,VWS V13.00,2013-06-09 22:25:00,
2013-06-09 15:30:00,75.9,35.5,29.78,South,169,2.0,6.0,23,0.00,,---,0.00,VWS V13.00,2013-06-09 22:30:00,
2013-06-09 15:35:00,76.3,34.7,29.78,SSW,206,6.0,15.0,22,0.00,,---,0.00,VWS V13.00,2013-06-09 22:35:00,
2013-06-09 15:40:00,76.0,36.6,29.78,SE,130,10.0,20.0,24,0.00,,---,0.00,VWS V13.00,2013-06-09 22:40:00,
2013-06-09 15:45:00,74.9,33.5,29.78,SSE,161,1.0,20.0,22,0.00,,---,0.00,VWS V13.00,2013-06-09 22:45:00,
2013-06-09 15:50:00,75.8,37.5,29.77,South,188,2.0,20.0,25,0.00,,---,0.00,VWS V13.00,2013-06-09 22:50:00,
2013-06-09 15:55:00,76.4,38.0,29.77,SE,145,0.0,20.0,25,0.00,,---,0.00,VWS V13.00,2013-06-09 22:55:00,
2013-06-09 16:00:00,76.3,33.5,29.78,SW,235,5.0,10.0,21,0.00,,---,0.00,VWS V13.00,2013-06-09 23:00:00,
2013-06-09 16:05:00,75.7,35.3,29.78,SSE,155,5.0,13.0,23,0.00,,---,0.00,VWS V13.00,2013-06-09 23:05:00,
2013-06-09 16:10:00,75.5,35.2,29.78,South,182,0.0,16.0,23,0.00,,---,0.00,VWS V13.00,2013-06-09 23:10:00,
2013-06-09 16:15:00,76.4,35.9,29.78,SSW,211,3.0,16.0,23,0.00,,---,0.00,VWS V13.00,2013-06-09 23:15:00,
2013-06-09 16:20:00,76.7,36.2,29.78,South,170,4.0,16.0,23,0.00,,---,0.00,VWS V13.00,2013-06-09 23:20:00,
2013-06-09 16:25:00,75.8,35.4,29.78,South,175,7.0,16.0,23,0.00,,---,0.00,VWS V13.00,2013-06-09 23:25:00,
2013-06-09 16:30:00,75.6,31.7,29.78,SSE,159,5.0,13.0,20,0.00,,---,0.00,VWS V13.00,2013-06-09 23:30:00,
2013-06-09 16:35:00,75.4,32.8,29.78,South,180,5.0,13.0,21,0.00,,---,0.00,VWS V13.00,2013-06-09 23:35:00,
2013-06-09 16:40:00,75.6,31.7,29.78,SSE,155,5.0,13.0,20,0.00,,---,0.00,VWS V13.00,2013-06-09 23:40:00,
2013-06-09 16:45:00,75.8,33.1,29.77,WSW,244,3.0,14.0,21,0.00,,---,0.00,VWS V13.00,2013-06-09 23:45:00,
2013-06-09 16:50:00,76.1,33.4,29.78,SE,130,5.0,14.0,21,0.00,,---,0.00,VWS V13.00,2013-06-09 23:50:00,
2013-06-09 16:55:00,75.5,31.7,29.77,SSE,160,11.0,14.0,20,0.00,,---,0.00,VWS V13.00,2013-06-09 23:55:00,
2013-06-09 17:00:00,75.4,31.6,29.78,West,271,4.0,7.0,20,0.00,,---,0.00,VWS V13.00,2013-06-10 00:00:00,
2013-06-09 17:05:00,75.6,31.7,29.78,South,182,2.0,14.0,20,0.00,,---,0.00,VWS V13.00,2013-06-10 00:05:00,
2013-06-09 17:10:00,75.2,31.4,29.78,South,178,4.0,14.0,20,0.00,,---,0.00,VWS V13.00,2013-06-10 00:10:00,
2013-06-09 17:15:00,75.2,31.4,29.78,SE,134,5.0,15.0,20,0.00,,---,0.00,VWS V13.00,2013-06-10 00:15:00,
2013-06-09 17:20:00,75.2,32.6,29.78,SSW,213,4.0,15.0,21,0.00,,---,0.00,VWS V13.00,2013-06-10 00:20:00,
2013-06-09 17:25:00,75.3,32.7,29.78,SW,234,5.0,15.0,21,0.00,,---,0.00,VWS V13.00,2013-06-10 00:25:00,
2013-06-09 17:30:00,76.0,32.1,29.77,SW,232,3.0,10.0,20,0.00,,---,0.00,VWS V13.00,2013-06-10 00:30:00,
2013-06-09 17:34:00,76.2,32.2,29.77,South,187,2.0,10.0,20,0.00,,---,0.00,VWS V13.00,2013-06-10 00:34:00,
2013-06-09 17:39:00,76.5,33.7,29.77,SW,217,4.0,10.0,21,0.00,,---,0.00,VWS V13.00,2013-06-10 00:39:00,
2013-06-09 17:44:00,76.3,33.5,29.77,SW,217,1.0,11.0,21,0.00,,---,0.00,VWS V13.00,2013-06-10 00:44:00,
2013-06-09 17:49:00,75.7,30.6,29.77,SSW,209,2.0,13.0,19,0.00,,---,0.00,VWS V13.00,2013-06-10 00:49:00,
2013-06-09 17:55:00,75.7,31.8,29.77,South,184,3.0,13.0,20,0.00,,---,0.00,VWS V13.00,2013-06-10 00:55:00,
2013-06-09 17:59:00,76.0,32.1,29.76,South,190,3.0,10.0,20,0.00,,---,0.00,VWS V13.00,2013-06-10 00:59:00,
2013-06-09 18:00:00,76.0,32.1,29.77,West,265,6.0,13.0,20,0.00,,---,0.00,VWS V13.00,2013-06-10 01:00:00,
2013-06-09 18:05:00,76.3,32.3,29.76,South,175,4.0,10.0,20,0.00,,---,0.00,VWS V13.00,2013-06-10 01:05:00,
2013-06-09 18:09:00,76.5,32.5,29.76,SSE,163,2.0,10.0,20,0.00,,---,0.00,VWS V13.00,2013-06-10 01:09:00,
2013-06-09 18:14:00,76.7,32.7,29.76,WSW,246,6.0,10.0,20,0.00,,---,0.00,VWS V13.00,2013-06-10 01:14:00,
2013-06-09 18:19:00,76.7,32.7,29.76,SW,229,7.0,10.0,20,0.00,,---,0.00,VWS V13.00,2013-06-10 01:19:00,
2013-06-09 18:24:00,76.7,32.7,29.76,SW,219,9.0,12.0,20,0.00,,---,0.00,VWS V13.00,2013-06-10 01:24:00,
2013-06-09 18:29:00,76.6,31.3,29.76,SSW,202,1.0,6.0,19,0.00,,---,0.00,VWS V13.00,2013-06-10 01:29:00,
2013-06-09 18:30:00,76.6,33.8,29.76,South,191,2.0,12.0,21,0.00,,---,0.00,VWS V13.00,2013-06-10 01:30:00,
2013-06-09 18:34:00,76.6,32.6,29.76,SW,228,6.0,10.0,20,0.00,,---,0.00,VWS V13.00,2013-06-10 01:34:00,
2013-06-09 18:40:00,76.5,32.5,29.75,South,175,0.0,10.0,20,0.00,,---,0.00,VWS V13.00,2013-06-10 01:40:00,
2013-06-09 18:45:00,76.6,33.8,29.76,SE,138,5.0,10.0,21,0.00,,---,0.00,VWS V13.00,2013-06-10 01:45:00,
2013-06-09 18:50:00,76.5,33.7,29.75,South,170,3.0,10.0,21,0.00,,---,0.00,VWS V13.00,2013-06-10 01:50:00,
2013-06-09 18:55:00,76.5,36.0,29.75,SE,144,3.0,10.0,23,0.00,,---,0.00,VWS V13.00,2013-06-10 01:55:00,
2013-06-09 19:00:00,76.5,36.0,29.74,SSE,159,3.0,3.0,23,0.00,,---,0.00,VWS V13.00,2013-06-10 02:00:00,
2013-06-09 19:05:00,76.5,34.9,29.75,SSE,160,3.0,5.0,22,0.00,,---,0.00,VWS V13.00,2013-06-10 02:05:00,
2013-06-09 19:10:00,76.2,35.7,29.75,SE,138,0.0,8.0,23,0.00,,---,0.00,VWS V13.00,2013-06-10 02:10:00,
2013-06-09 19:15:00,76.1,35.7,29.74,SE,138,0.0,8.0,23,0.00,,---,0.00,VWS V13.00,2013-06-10 02:15:00,
2013-06-09 19:20:00,76.1,34.5,29.74,SE,138,0.0,8.0,22,0.00,,---,0.00,VWS V13.00,2013-06-10 02:20:00,
2013-06-09 19:25:00,76.3,33.5,29.74,WSW,246,1.0,8.0,21,0.00,,---,0.00,VWS V13.00,2013-06-10 02:25:00,
2013-06-09 19:30:00,76.4,34.8,29.74,WSW,246,0.0,1.0,22,0.00,,---,0.00,VWS V13.00,2013-06-10 02:30:00,
2013-06-09 19:35:00,76.4,33.6,29.74,WSW,248,0.0,3.0,21,0.00,,---,0.00,VWS V13.00,2013-06-10 02:35:00,
2013-06-09 19:40:00,76.5,33.7,29.74,WSW,248,0.0,3.0,21,0.00,,---,0.00,VWS V13.00,2013-06-10 02:40:00,
2013-06-09 19:45:00,76.2,36.8,29.74,WSW,246,0.0,3.0,24,0.00,,---,0.00,VWS V13.00,2013-06-10 02:45:00,
2013-06-09 19:50:00,75.8,35.4,29.74,WSW,247,0.0,3.0,23,0.00,,---,0.00,VWS V13.00,2013-06-10 02:50:00,
2013-06-09 19:55:00,75.5,37.2,29.74,WSW,247,0.0,3.0,25,0.00,,---,0.00,VWS V13.00,2013-06-10 02:55:00,
2013-06-09 20:00:00,75.0,34.7,29.73,WSW,246,0.0,1.0,23,0.00,,---,0.00,VWS V13.00,2013-06-10 03:00:00,
2013-06-09 20:05:00,74.5,34.3,29.73,WSW,244,0.0,1.0,23,0.00,,---,0.00,VWS V13.00,2013-06-10 03:05:00,
2013-06-09 20:10:00,74.0,33.9,29.74,WSW,244,0.0,1.0,23,0.00,,---,0.00,VWS V13.00,2013-06-10 03:10:00,
2013-06-09 20:15:00,73.4,35.5,29.73,WSW,244,0.0,1.0,25,0.00,,---,0.00,VWS V13.00,2013-06-10 03:15:00,
2013-06-09 20:20:00,73.0,35.1,29.74,SSW,205,3.0,3.0,25,0.00,,---,0.00,VWS V13.00,2013-06-10 03:20:00,
2013-06-09 20:25:00,72.5,36.7,29.73,SSW,206,3.0,3.0,27,0.00,,---,0.00,VWS V13.00,2013-06-10 03:25:00,
2013-06-09 20:30:00,72.1,39.0,29.74,SSW,206,0.0,0.0,30,0.00,,---,0.00,VWS V13.00,2013-06-10 03:30:00,
2013-06-09 20:34:00,71.6,40.2,29.73,SSW,206,0.0,1.0,32,0.00,,---,0.00,VWS V13.00,2013-06-10 03:34:00,
2013-06-09 20:39:00,71.1,41.3,29.74,SSW,206,0.0,1.0,34,0.00,,---,0.00,VWS V13.00,2013-06-10 03:39:00,
2013-06-09 20:44:00,70.4,40.7,29.74,SSW,206,4.0,4.0,34,0.00,,---,0.00,VWS V13.00,2013-06-10 03:44:00,
2013-06-09 20:49:00,69.5,42.1,29.74,SSW,207,1.0,4.0,37,0.00,,---,0.00,VWS V13.00,2013-06-10 03:49:00,
2013-06-09 20:54:00,68.6,41.3,29.74,SSW,207,2.0,4.0,37,0.00,,---,0.00,VWS V13.00,2013-06-10 03:54:00,
2013-06-09 20:59:00,67.7,40.5,29.74,SSW,207,2.0,3.0,37,0.00,,---,0.00,VWS V13.00,2013-06-10 03:59:00,
2013-06-09 21:00:00,67.9,40.7,29.75,SSW,207,2.0,4.0,37,0.00,,---,0.00,VWS V13.00,2013-06-10 04:00:00,
2013-06-09 21:01:00,67.6,41.1,29.74,SSW,206,2.0,3.0,38,0.00,,---,0.00,VWS V13.00,2013-06-10 04:01:00,
2013-06-09 21:06:00,66.6,40.2,29.74,SSW,207,2.0,4.0,38,0.00,,---,0.00,VWS V13.00,2013-06-10 04:06:00,
2013-06-09 21:11:00,65.7,40.1,29.74,SSW,209,3.0,4.0,39,0.00,,---,0.00,VWS V13.00,2013-06-10 04:11:00,
2013-06-09 21:16:00,64.9,40.0,29.74,SSW,209,3.0,4.0,40,0.00,,---,0.00,VWS V13.00,2013-06-10 04:16:00,
2013-06-09 21:21:00,64.2,40.7,29.75,SSW,209,4.0,4.0,42,0.00,,---,0.00,VWS V13.00,2013-06-10 04:21:00,
2013-06-09 21:27:00,63.3,41.0,29.75,SSW,209,3.0,3.0,44,0.00,,---,0.00,VWS V13.00,2013-06-10 04:27:00,
2013-06-09 21:32:00,62.6,41.0,29.75,SSW,209,3.0,3.0,45,0.00,,---,0.00,VWS V13.00,2013-06-10 04:32:00,
2013-06-09 21:37:00,62.0,41.0,29.75,SSW,209,2.0,3.0,46,0.00,,---,0.00,VWS V13.00,2013-06-10 04:37:00,
2013-06-09 21:42:00,61.4,40.5,29.75,SSW,209,3.0,4.0,46,0.00,,---,0.00,VWS V13.00,2013-06-10 04:42:00,
2013-06-09 21:47:00,60.7,40.4,29.76,SSW,209,2.0,4.0,47,0.00,,---,0.00,VWS V13.00,2013-06-10 04:47:00,
2013-06-09 21:52:00,60.2,40.5,29.76,SSW,209,1.0,4.0,48,0.00,,---,0.00,VWS V13.00,2013-06-10 04:52:00,
2013-06-09 21:57:00,59.7,40.0,29.76,SSW,209,2.0,4.0,48,0.00,,---,0.00,VWS V13.00,2013-06-10 04:57:00,
2013-06-09 22:02:00,59.0,39.9,29.76,SSW,209,2.0,3.0,49,0.00,,---,0.00,VWS V13.00,2013-06-10 05:02:00,
2013-06-09 22:07:00,58.9,39.8,29.76,SSW,209,1.0,3.0,49,0.00,,---,0.00,VWS V13.00,2013-06-10 05:07:00,
2013-06-09 22:12:00,58.4,39.8,29.76,SSW,209,0.0,3.0,50,0.00,,---,0.00,VWS V13.00,2013-06-10 05:12:00,
2013-06-09 22:17:00,58.0,39.5,29.76,SSW,209,0.0,3.0,50,0.00,,---,0.00,VWS V13.00,2013-06-10 05:17:00,
2013-06-09 22:22:00,57.8,39.8,29.76,SSW,209,0.0,3.0,51,0.00,,---,0.00,VWS V13.00,2013-06-10 05:22:00,
2013-06-09 22:27:00,57.6,39.6,29.76,SSW,209,0.0,3.0,51,0.00,,---,0.00,VWS V13.00,2013-06-10 05:27:00,
2013-06-09 22:32:00,57.4,39.9,29.76,SSW,209,0.0,0.0,52,0.00,,---,0.00,VWS V13.00,2013-06-10 05:32:00,
2013-06-09 22:37:00,57.2,39.8,29.76,SSW,209,0.0,0.0,52,0.00,,---,0.00,VWS V13.00,2013-06-10 05:37:00,
2013-06-09 22:42:00,57.0,40.5,29.76,SSW,209,0.0,0.0,54,0.00,,---,0.00,VWS V13.00,2013-06-10 05:42:00,
2013-06-09 22:47:00,56.8,39.9,29.76,SSW,209,2.0,2.0,53,0.00,,---,0.00,VWS V13.00,2013-06-10 05:47:00,
2013-06-09 22:52:00,56.7,39.3,29.76,SSW,209,0.0,2.0,52,0.00,,---,0.00,VWS V13.00,2013-06-10 05:52:00,
2013-06-09 22:57:00,56.5,39.1,29.76,SSW,209,0.0,2.0,52,0.00,,---,0.00,VWS V13.00,2013-06-10 05:57:00,
2013-06-09 23:02:00,56.4,39.0,29.76,SSW,209,0.0,0.0,52,0.00,,---,0.00,VWS V13.00,2013-06-10 06:02:00,
2013-06-09 23:07:00,56.3,38.9,29.76,SSW,209,0.0,0.0,52,0.00,,---,0.00,VWS V13.00,2013-06-10 06:07:00,
2013-06-09 23:12:00,56.2,38.8,29.76,SSW,209,0.0,0.0,52,0.00,,---,0.00,VWS V13.00,2013-06-10 06:12:00,
2013-06-09 23:17:00,56.1,38.2,29.76,SSW,209,0.0,2.0,51,0.00,,---,0.00,VWS V13.00,2013-06-10 06:17:00,
2013-06-09 23:22:00,55.9,40.0,29.76,SSW,209,0.0,2.0,55,0.00,,---,0.00,VWS V13.00,2013-06-10 06:22:00,
2013-06-09 23:27:00,55.8,38.9,29.76,SSW,209,0.0,2.0,53,0.00,,---,0.00,VWS V13.00,2013-06-10 06:27:00,
2013-06-09 23:32:00,55.7,38.4,29.76,SSW,209,0.0,0.0,52,0.00,,---,0.00,VWS V13.00,2013-06-10 06:32:00,
2013-06-09 23:37:00,55.6,38.8,29.76,SSW,209,1.0,2.0,53,0.00,,---,0.00,VWS V13.00,2013-06-10 06:37:00,
2013-06-09 23:42:00,55.5,39.6,29.76,SSW,209,0.0,2.0,55,0.00,,---,0.00,VWS V13.00,2013-06-10 06:42:00,
2013-06-09 23:47:00,55.4,40.0,29.76,SSW,209,0.0,2.0,56,0.00,,---,0.00,VWS V13.00,2013-06-10 06:47:00,
2013-06-09 23:52:00,55.2,40.2,29.76,SSW,209,0.0,2.0,57,0.00,,---,0.00,VWS V13.00,2013-06-10 06:52:00,
2013-06-09 23:57:00,55.0,40.1,29.76,SSW,209,0.0,2.0,57,0.00,,---,0.00,VWS V13.00,2013-06-10 06:57:00,